Location: Unspecified
(0.0000°N, 0.0000°E)
Time: 23:26:36
(UTC+00:00)

Vanguard 1 - Pass Details

Date: 03 October 2020
Orbit: 649 x 3833 km, 34.3° (Epoch: 28 October)

Event Time Altitude Azimuth Distance (km) Brightness Sun altitude
Rises 12:07:53 0° 223° (SW) 7,425 14.6 83.6°
Reaches altitude 10° 12:14:07 10° 212° (SSW) 6,702 14.6 82.4°
Maximum altitude 12:33:04 30° 157° (SSE) 5,351 14.3 78.2°
Drops below altitude 10° 12:49:50 10° 103° (ESE) 6,058 14.1 74.2°
Sets 12:54:54 0° 93° (E) 6,665 14.1 73.0°
